Location: Newark
(51.0000°N, 11.4100°E)
Time: 00:30:32
(UTC+00:00)

Transit 2A - Visible Passes

Search period start: 12 November 2019 00:00
Search period end: 22 November 2019 00:00
Orbit: 601 x 957 km, 66.7° (Epoch: 11 November)

Date Brightness Start Highest point End Pass type
(mag) Time Alt. Az. Time Alt. Az. Time Alt. Az.
12 Nov 8.0 17:44:38 10° NNW 17:45:48 11° N 17:46:22 11° N visible
13 Nov 7.9 17:10:10 10° NNW 17:11:17 11° N 17:12:23 10° NNE visible
13 Nov 8.4 18:53:25 10° NNW 18:53:32 10° NNW 18:53:32 10° NNW visible
14 Nov 7.9 16:35:25 10° NNW 16:36:45 11° N 16:38:04 10° N visible
14 Nov 8.0 18:19:25 10° NNW 18:20:14 12° N 18:20:14 12° N visible
15 Nov 7.9 16:00:30 10° NW 16:02:14 12° NNW 16:03:57 10° N visible
15 Nov 7.8 17:45:25 10° NNW 17:46:57 13° N 17:46:57 13° N visible
16 Nov 7.8 17:11:22 10° N 17:12:55 12° N 17:13:41 11° NNE visible
16 Nov 8.3 18:53:54 10° NNW 18:54:10 11° NNW 18:54:10 11° NNW visible
17 Nov 7.8 16:37:14 10° N 16:38:24 11° N 16:39:34 10° NNE visible
17 Nov 7.9 18:19:54 10° NNW 18:20:55 14° N 18:20:55 14° N visible
18 Nov 7.8 16:02:51 10° NNW 16:03:53 11° N 16:04:52 10° NNE visible
18 Nov 7.6 17:45:54 10° NNW 17:47:41 16° N 17:47:41 16° N visible
19 Nov 7.5 17:11:55 10° NNW 17:14:28 15° NNE 17:14:28 15° NNE visible
19 Nov 8.2 18:54:26 10° NNW 18:54:57 13° NNW 18:54:57 13° NNW visible
20 Nov 7.5 16:37:55 10° NNW 16:40:00 13° NNE 16:41:18 12° NE visible
20 Nov 7.6 18:20:23 10° NNW 18:21:46 18° NNW 18:21:46 18° NNW visible
21 Nov 7.6 16:03:54 10° N 16:05:30 12° NNE 16:07:05 10° NNE visible
21 Nov 7.1 17:46:22 10° NNW 17:48:39 23° N 17:48:39 23° N visible
